COSMOS 569

Satellite information

Favourite Embed

Satellite Type and Status

PAYLOADIN ORBIT

Key statistics

Satellite COSMOS 569 at a glance.

Uptime

19023

Days in orbit

Revolutions

≈ 12.6

Per day

Orbit

LEO

Low Earth Orbit

Inclination

74.0

Latest

Satellite identification and parameters

Extended collection of information and parameters for COSMOS 569.

Object identification

Identified? True

Debris? False

Object name: COSMOS 569

International designator: 1973-037F

Object number (NORAD): 6680

Object ID (CCSDS): 6680

Country: COMMONWEALTH OF INDEPENDENT STATES (CIS)

Current information (Y/N): Y

RCS size: MEDIUM

Orbital parameters

Period: 114.18 minutes

Inclination: 74.0171 deg

SMA: 7796.252 km

Apoapsis: 1479.174 km

Periapsis: 1357.06 km

RAAN: 243.5998 deg

Eccentricy: 0.0078316

Argument of periapsis: 104.4785 deg

Mean anomaly: 7.6799 deg

Mean motion: 12.61170898 rev/day

Mean motion (dot): -0.00000001 rev/day2

B* drag term: 0.00008418 1/REarth

Two-line elements (TLE)

Creation date: July 6, 2025, 6:05 p.m.

Reference frame: TEME

Reference center: EARTH

Epoch: July 6, 2025, 2 p.m. UTC

TLE line 0: 0 COSMOS 569

TLE line 1: 1 06680U 73037F 25187.58367036 -.00000001 00000-0 84180-4 0 9998

TLE line 2: 2 06680 74.0171 243.5998 0078316 104.4785 7.6799 12.61170898397499

Live tracking on map

Real-time ground track for satellite COSMOS 569.

In-orbit conjunctions

A list of the most updated potential collisions computed for object COSMOS 569.

Target Orbit TCA Probability of collision Miss distance Type
COSMOS 1636 LEO 2025-03-16 15:52:31 0.0005726158 266.0 (m) PAYLOAD
DELTA 1 DEB SSO 2024-07-17 21:42:36 0.0003624103 326.0 (m) DEBRIS

Associated space launch

Military communications satellites

COSMOS 569 was lifted into orbit during the mission ‘Kosmos-3M | Strela-1M 41-48’, on board a Kosmos-3M space rocket.

The launch took place on June 8, 1973, 3:50 p.m. from 132/1 (132L).

For more information about the launch, click the button.

Launch to space Kosmos-3M | Strela-1M 41-48
Kosmos-3M | Strela-1M 41-48

Agency: N/A

Status: Launch Successful

Launch date: June 8, 1973, 3:50 p.m. UTC

Rocket: Kosmos-3M

Launch pad: 132/1 (132L)

Location: Plesetsk Cosmodrome, Russian Federation

...

Latest news about this satellite

There are no fresh news available about this satellite. Check back as we update our databases every day.


Newsletter sign-up

Weekly statistics, charts and insights to help you stay on top of the space industry.